Total_Precipitation_Accumulation
1.80 1.78 1.72 1.68 1.64 1.76 1.91 2.05 2.12 2.43 2.55 2.22 1.84 1.74 1.71 1.78 1.69 1.69 1.63 1.59 1.52 1.64 1.99 2.21 2.07 1.85 1.57 1.35 1.21 1.09 0.97 0.86 0.77 0.68 0.69 0.76 0.76 0.71 0.64 0.58 0.52 0.45 0.39
1.92 2.01 1.91 1.86 1.75 1.73 1.89 2.06 2.23 2.67 2.67 2.49 2.05 1.88 1.81 1.77 1.62 1.54 1.63 1.86 1.69 1.58 1.69 1.95 2.15 2.12 1.98 1.73 1.47 1.27 1.12 1.04 0.91 0.69 0.58 0.64 0.68 0.67 0.66 0.65 0.58 0.48 0.41
1.90 1.90 1.74 1.68 1.72 1.85 2.00 2.03 2.22 2.50 2.22 2.20 1.98 1.89 1.71 1.54 1.36 1.32 1.50 1.70 1.60 1.55 1.66 1.77 1.93 2.02 2.10 2.12 1.97 1.75 1.44 1.24 1.07 0.83 0.66 0.61 0.65 0.61 0.59 0.61 0.60 0.53 0.42
1.79 1.92 1.74 1.61 1.92 2.03 2.10 2.26 2.37 2.37 2.28 2.24 2.04 1.80 1.61 1.51 1.23 1.13 1.15 1.23 1.37 1.24 1.50 1.70 1.74 1.78 1.98 2.22 2.40 2.42 2.07 1.68 1.38 1.14 0.92 0.79 0.78 0.72 0.61 0.56 0.58 0.50 0.38
1.88 2.11 2.02 2.07 2.25 2.30 2.28 2.19 2.42 2.40 2.28 2.24 2.03 1.76 1.46 1.30 1.13 0.98 0.91 0.87 0.97 1.04 1.12 1.30 1.44 1.52 1.86 2.36 2.64 2.77 2.67 2.26 1.76 1.49 1.36 1.20 1.12 0.93 0.71 0.61 0.60 0.56 0.44
2.01 2.29 2.11 2.06 2.21 2.32 2.29 2.25 2.21 2.23 2.04 2.02 1.90 1.61 1.29 1.01 0.93 0.81 0.70 0.68 0.72 0.69 0.81 1.00 1.23 1.13 1.45 1.96 2.29 2.60 2.85 2.69 2.18 1.87 1.75 1.65 1.54 1.30 0.89 0.70 0.66 0.63 0.58
1.94 2.20 2.06 2.11 2.12 2.09 2.10 2.15 2.15 1.98 1.67 1.86 1.89 1.47 1.07 0.85 0.81 0.61 0.56 0.57 0.57 0.58 0.71 0.92 1.09 1.10 1.08 1.21 1.51 1.86 2.34 2.56 2.35 2.05 1.93 1.82 1.85 1.70 1.22 0.92 0.81 0.69 0.69
1.99 2.01 2.05 2.00 2.01 2.04 1.96 1.92 1.98 1.81 1.51 1.64 1.73 1.65 1.13 0.87 0.69 0.52 0.58 0.66 0.70 0.75 0.77 0.82 0.96 1.09 1.11 1.32 1.22 1.20 1.61 2.15 2.47 2.40 2.14 1.80 1.67 1.61 1.41 1.27 1.09 0.92 0.89
2.12 2.09 2.02 1.89 1.74 1.66 1.61 1.65 1.72 1.71 1.52 1.47 1.65 1.83 1.44 1.04 0.90 0.69 0.66 0.68 0.79 0.90 0.86 0.88 0.91 1.06 1.16 1.39 1.51 1.35 1.23 1.49 2.05 2.58 2.58 2.11 1.65 1.45 1.41 1.40 1.37 1.22 1.11
1.90 1.70 1.56 1.56 1.51 1.47 1.41 1.31 1.37 1.42 1.34 1.26 1.36 1.48 1.54 1.50 1.40 0.93 0.66 0.62 0.73 0.84 0.92 0.85 0.79 0.90 1.06 1.25 1.48 1.49 1.18 1.08 1.34 2.04 2.45 2.33 1.95 1.56 1.40 1.43 1.68 1.65 1.34
1.53 1.27 1.19 1.22 1.21 1.18 1.15 1.10 1.09 1.07 1.06 1.07 1.19 1.33 1.42 1.47 1.46 1.33 0.96 0.88 0.87 0.80 0.83 0.84 0.86 0.87 0.93 1.14 1.38 1.31 1.28 1.18 1.13 1.28 1.61 1.88 1.97 1.79 1.67 1.81 2.14 2.26 2.00
1.15 0.93 0.84 0.90 0.95 1.01 0.98 0.96 0.97 0.94 0.98 1.09 1.11 1.18 1.31 1.29 1.29 1.37 1.17 1.05 0.99 0.85 0.84 0.89 0.89 0.96 0.96 1.05 1.07 1.25 1.24 1.04 0.96 0.96 1.07 1.28 1.50 1.60 1.65 1.86 2.26 2.60 2.67
0.93 0.82 0.76 0.79 0.84 0.90 0.85 0.84 0.84 0.91 1.03 1.12 1.08 1.11 1.22 1.25 1.27 1.36 1.32 1.21 1.14 1.06 1.08 1.07 0.90 0.82 0.73 0.83 0.92 0.97 0.89 0.78 0.72 0.70 0.74 0.83 0.97 1.18 1.41 1.64 1.97 2.32 2.58
0.91 0.92 0.83 0.78 0.75 0.75 0.72 0.78 0.77 0.82 0.94 1.04 0.98 1.10 1.18 1.23 1.37 1.49 1.52 1.50 1.35 1.22 1.19 1.14 0.97 0.83 0.79 0.81 0.78 0.76 0.71 0.64 0.53 0.51 0.53 0.55 0.63 0.77 0.99 1.18 1.43 1.71 1.94
0.91 0.99 0.92 0.85 0.80 0.79 0.81 0.88 0.91 0.99 1.14 1.20 1.22 1.32 1.33 1.28 1.32 1.39 1.45 1.51 1.56 1.38 1.20 1.13 1.02 0.87 0.87 0.91 0.83 0.75 0.80 0.64 0.46 0.41 0.40 0.40 0.47 0.58 0.64 0.71 0.86 1.06 1.27
0.80 0.93 0.97 0.91 0.85 0.81 0.84 0.92 1.07 1.24 1.36 1.38 1.41 1.47 1.50 1.43 1.43 1.47 1.46 1.52 1.61 1.52 1.29 1.09 1.02 0.94 0.93 0.83 0.83 0.78 0.73 0.63 0.51 0.43 0.38 0.35 0.36 0.40 0.41 0.44 0.53 0.65 0.81
0.77 0.78 0.83 0.86 0.83 0.79 0.81 0.87 0.97 1.16 1.28 1.29 1.30 1.35 1.35 1.34 1.32 1.28 1.34 1.46 1.59 1.59 1.37 1.16 1.18 1.20 1.15 1.03 0.97 0.89 0.76 0.68 0.55 0.47 0.40 0.37 0.34 0.33 0.34 0.37 0.41 0.46 0.55
0.76 0.76 0.77 0.75 0.70 0.70 0.76 0.81 0.92 1.02 1.10 1.12 1.11 1.11 1.05 1.03 1.06 1.04 1.11 1.18 1.28 1.46 1.45 1.32 1.38 1.41 1.39 1.28 1.22 1.14 0.94 0.74 0.62 0.56 0.47 0.43 0.40 0.36 0.34 0.35 0.38 0.44 0.51
0.73 0.72 0.71 0.72 0.74 0.81 0.88 0.91 0.93 0.92 0.92 0.95 1.03 1.10 1.00 0.94 0.93 0.96 0.98 0.96 1.01 1.18 1.30 1.34 1.39 1.48 1.48 1.46 1.33 1.19 1.11 0.99 0.76 0.66 0.58 0.52 0.47 0.43 0.39 0.37 0.39 0.44 0.49
0.67 0.69 0.73 0.76 0.81 0.86 0.91 0.94 0.95 0.90 0.82 0.75 0.80 0.86 0.87 0.85 0.84 0.91 0.93 0.93 0.95 1.08 1.21 1.29 1.37 1.53 1.55 1.48 1.43 1.27 1.25 1.15 1.03 0.86 0.74 0.62 0.60 0.55 0.49 0.43 0.39 0.40 0.48
0.68 0.73 0.78 0.82 0.82 0.80 0.74 0.72 0.73 0.73 0.70 0.64 0.59 0.60 0.65 0.71 0.74 0.77 0.77 0.89 0.97 1.01 1.05 1.11 1.18 1.37 1.58 1.62 1.43 1.33 1.39 1.37 1.24 1.06 0.95 0.76 0.65 0.59 0.55 0.51 0.46 0.42 0.44
0.74 0.77 0.79 0.83 0.84 0.71 0.72 0.63 0.57 0.59 0.63 0.63 0.64 0.63 0.59 0.58 0.58 0.58 0.58 0.64 0.78 0.88 0.94 1.00 1.05 1.21 1.43 1.60 1.65 1.60 1.52 1.43 1.39 1.27 1.17 1.08 0.91 0.80 0.72 0.61 0.50 0.47 0.44
0.87 0.85 0.82 0.80 0.81 0.83 0.81 0.68 0.54 0.50 0.54 0.59 0.64 0.65 0.55 0.50 0.56 0.55 0.56 0.54 0.53 0.62 0.74 0.88 0.95 1.00 1.16 1.39 1.60 1.56 1.62 1.63 1.61 1.59 1.58 1.52 1.28 1.09 0.92 0.77 0.61 0.47 0.44
1.03 1.00 0.94 0.87 0.89 0.87 0.79 0.63 0.55 0.48 0.50 0.53 0.58 0.62 0.61 0.54 0.52 0.59 0.64 0.59 0.54 0.52 0.56 0.63 0.72 0.88 1.09 1.33 1.60 1.59 1.58 1.65 1.70 1.73 1.75 1.76 1.58 1.40 1.19 1.03 0.84 0.64 0.51
1.15 1.07 1.00 0.99 0.95 0.95 0.90 0.72 0.64 0.60 0.65 0.67 0.69 0.66 0.65 0.60 0.60 0.57 0.59 0.61 0.61 0.60 0.57 0.60 0.63 0.80 1.02 1.15 1.36 1.49 1.46 1.47 1.39 1.34 1.46 1.63 1.64 1.60 1.47 1.24 1.01 0.81 0.63
1.23 1.24 1.20 1.17 1.16 1.22 1.27 1.06 0.93 0.83 0.84 0.83 0.89 0.83 0.74 0.66 0.64 0.60 0.58 0.63 0.63 0.63 0.70 0.68 0.64 0.67 0.78 0.96 1.11 1.24 1.35 1.40 1.28 1.15 0.99 1.10 1.27 1.45 1.57 1.43 1.22 1.03 0.88